Regional Weather Roundup
Issued by NWS Jackson, KY

Home | Current Version | Previous Version | Text Only | Print | Product List | Glossary On
Versions: 1 2 3 4 5 6 7 8 9 10 11 12 13 14 15 16 17 18 19 20 21 22 23 24 25 26 27 28 29 30 31 32 33 34 35 36 37 38 39 40 41 42 43 44 45 46 47 48 49 50
000
ASUS43 KJKL 022310
RWRJKL

EAST KENTUCKY HOURLY WEATHER ROUNDUP
NATIONAL WEATHER SERVICE JACKSON KY
700 PM EDT SUN AUG 02 2015

NOTE: "FAIR" INDICATES FEW OR NO CLOUDS BELOW 12,000 FEET WITH
NO SIGNIFICANT WEATHER AND/OR OBSTRUCTIONS TO VISIBILITY.

* THESE REPORTS ARE NOT UNDER NWS QUALITY CONTROL AND MAY NOT
  REPORT WEATHER SUCH AS PRECIPITATION AND FOG.

KYZ079-080-083-085-087-088-110-112-115-119-120-030000
...EASTERN KENTUCKY...

CITY           SKY/WX    TMP DP  RH WIND       PRES   REMARKS
JACKSON        SUNNY     83  58  42 CALM      29.97F
LONDON         SUNNY     85  57  38 E6        29.96F
SOMERSET*      MOSUNNY   79  55  44 CALM      29.96F
MONTICELLO*    SUNNY     87  68  53 CALM      29.98F HX  90
WILLIAMSBURG*  SUNNY     84  61  45 CALM      29.95
MIDDLESBORO*   SUNNY     86  59  40 CALM      29.95F
BLACK MTN*       N/A     70  57  64 CALM        N/A
PIKEVILLE APT* SUNNY     81  61  50 N3        29.98F
BIG SANDY*     CLEAR     83  60  46 CALM      29.97F
MOREHEAD APT*  CLEAR     82  61  47 S3        29.97F
$$

KYZ035-036-041-042-044-050-067-078-099-030000
...CENTRAL KENTUCKY...

CITY           SKY/WX    TMP DP  RH WIND       PRES   REMARKS
MT STERLING*   SUNNY     82  61  47 CALM      29.97F
FLEMING/MASON* SUNNY    N/A N/A N/A SW5       29.96F
DANVILLE*      SUNNY     82  61  47 SE3       29.96F
RICHMOND*      SUNNY     84  59  42 CALM      29.95F
LEXINGTON      SUNNY     84  60  44 SW6       29.95F
FRANKFORT      SUNNY     84  59  42 S7        29.92F
$$

KYZ091>093-OHZ055-061-077-WVZ005-015-034-035-042-030000
...SOUTHERN OHIO/WEST VIRGINIA...

CITY           SKY/WX    TMP DP  RH WIND       PRES   REMARKS
COVINGTON      MOSUNNY   83  61  47 S8        29.92F
COLUMBUS       MOSUNNY   85  61  44 SW10G18   29.89S
DAYTON         MOSUNNY   84  60  44 SW18      29.89F
WILMINGTON     SUNNY     82  61  48 S10       29.92S
HUNTINGTON     SUNNY     83  60  45 S6        29.94F
CHARLESTON     MOSUNNY   83  57  41 SW7       29.95F
PINEVILLE*     SUNNY     74  65  72 MISG      30.04F
BECKLEY        SUNNY     77  52  41 S6        30.04F
BLUEFIELD      SUNNY     78  53  41 VRB3      30.06F
$$

VAZ002-007-008-TNZ017-027-036-066-071-030000
...SOUTHWEST VIRGINIA/EAST TENNESSEE...

CITY           SKY/WX    TMP DP  RH WIND       PRES   REMARKS
WISE*          SUNNY     82  48  30 CALM      30.05F
ABINGDON*      SUNNY     83  49  31 NE3       30.00F
BRISTOL        MOSUNNY   85  54  34 N6        29.96F
KNOXVILLE      PTSUNNY   88  58  36 W6        29.92F
OAK RIDGE      MOSUNNY   91  54  28 NW3       29.94F
CROSSVILLE     MOSUNNY   82  60  47 SW5       29.99F
NASHVILLE      MOSUNNY   88  51  28 CALM      29.93F
$$

...KEY TO REMARKS...
VSB - VISIBILITY IN MILES
WCI - WIND CHILL INDEX
HX  - HEAT INDEX

$$



USA.gov is the U.S. government's official web portal to all federal, state and local government web resources and services.